#timestamp,LO_Frequency,Hit,StdDev 
1652662815.8,286046980.8,N
1652662835.6,286046986.5,N
1652662855.4,286046987.4,N
1652662875.3,286046987.6,N
1652662895.1,286046987.5,N
1652662915.8,286046985.3,N
1652662935.7,286046985.4,N
1652662955.5,286046988.0,N
1652662975.3,286046985.8,N
1652662995.2,286046991.5,N
1652663015.9,286046989.8,N
1652663035.7,286046984.3,N
1652663055.6,286046980.9,Y
1652663075.4,286046994.1,P
1652663095.2,286046991.7,N
1652663115.1,286046993.6,N
1652663116.0,286046993.6,N
1652663135.8,286046995.4,N
1652663155.6,286047002.8,N
1652663175.5,286047003.9,N
1652663195.3,286047003.6,N
1652663215.1,286046999.8,N
1652663235.9,286047003.6,N
1652663255.7,286047004.5,N
1652663275.5,286047006.9,N
1652663295.4,286047007.7,N
1652663315.2,286047010.3,N
1652663335.0,286047006.1,N
1652663335.9,286047006.1,N
1652663355.8,286047006.1,N
1652663375.6,286047010.0,N
1652663395.4,286047013.8,N
1652663415.3,286047008.2,N
1652663465.1,286047011.8,E
1652663475.0,286047005.8,N
1652663475.9,286047005.8,P
1652663495.8,286047006.0,P
1652663515.6,286047004.9,Y
1652663535.4,286046997.7,P
1652663555.3,286046994.9,N
1652663575.1,286046999.1,N
1652663595.8,286046997.3,N
1652663615.7,286046995.8,N
1652663635.5,286046999.3,N
1652663655.3,286046998.9,N
1652663675.2,286046999.4,N
1652663695.0,286046997.4,N
1652663695.9,286046997.4,N
1652663715.7,286046995.1,N
1652663735.6,286046992.6,N
1652663755.4,286046993.6,N
1652663775.2,286046999.1,N
1652663795.1,286047000.6,N
1652663796.0,286047000.6,N
1652663815.8,286047002.8,N
1652663835.7,286047000.9,N
1652663855.5,286046998.3,N
1652663875.3,286046995.8,N
1652663895.1,286046992.7,N
1652663915.9,286046991.4,N
1652663935.7,286046991.7,N
1652663955.6,286046989.4,Y
1652663975.4,286046990.8,P
1652663995.2,286046990.2,N
1652664015.1,286046994.8,N
1652664016.0,286046994.8,N
1652664035.8,286046994.8,N
1652664055.6,286046995.0,N
1652664075.5,286046994.6,N
1652664095.3,286046997.0,N
1652664115.1,286047001.2,N
1652664135.9,286046998.9,N
1652664155.7,286046998.5,N
1652664175.5,286047000.9,N
1652664195.4,286046996.6,N
1652664215.2,286046998.6,N
1652664235.0,286046993.4,N
1652664235.9,286046993.4,N
1652664255.8,286046989.1,Y
1652664275.6,286046994.3,P
1652664295.4,286046987.0,P
1652664315.3,286046986.6,P
1652664335.1,286046989.7,N
1652664336.0,286046989.7,N
1652664355.8,286046990.6,N
1652664375.7,286046992.0,N
1652664395.5,286046994.7,N
1652664415.3,286046994.5,N
1652664435.2,286046990.8,N
1652664455.9,286046990.8,Y
1652664475.7,286047001.8,P
1652664495.6,286047006.6,N
1652664515.4,286047009.5,N
1652664535.2,286047014.0,N
1652664555.1,286047016.3,N
1652664556.0,286047016.3,N
1652664575.8,286047014.5,N
1652664595.6,286047012.0,N
1652664615.5,286047007.2,N
1652664635.3,286047011.6,N
1652664655.1,286047007.2,N
1652664675.9,286047001.1,N
1652664695.7,286046994.0,N
1652664715.5,286046992.6,N
1652664735.4,286046990.2,N
1652664755.2,286046996.1,N
1652664775.0,286046999.4,N
1652664775.9,286046999.4,N
1652664795.8,286046995.6,N
1652664815.6,286046992.1,N
1652664835.4,286046993.3,N
1652664855.3,286046999.3,N
1652664875.1,286047003.8,N
1652664876.0,286047003.8,N
1652664895.8,286047005.4,N
1652664915.7,286047008.6,N
1652664935.5,286047009.7,N
1652664955.3,286047010.2,N
1652664975.2,286047012.3,N
1652664995.9,286047007.7,N
1652665015.7,286047012.4,N
1652665035.6,286047009.7,N
1652665055.4,286047007.9,N
1652665075.2,286047008.3,N
1652665095.1,286047010.2,N
1652665096.0,286047010.2,N
1652665115.8,286047006.4,N
1652665135.6,286047008.6,N
1652665155.5,286047013.0,N
1652665175.3,286047013.5,N
1652665195.1,286047010.2,N
1652665215.9,286047010.5,N
1652665235.7,286047006.5,N
1652665255.5,286047003.8,N
1652665275.4,286047004.2,N
1652665295.2,286047002.9,N
1652665315.0,286047003.0,N
1652665315.9,286047003.0,N
1652665335.8,286047003.1,N
1652665355.6,286047003.7,N
1652665375.4,286047002.8,N
1652665395.3,286046999.4,N
1652665415.1,286046996.7,N
1652665416.0,286046996.7,N
1652665435.8,286046996.7,N
1652665455.7,286046998.0,N
1652665475.5,286046995.8,N
1652665495.3,286046994.7,N
1652665515.2,286046994.7,N
1652665535.9,286046990.5,N
1652665555.7,286046988.4,N
1652665575.6,286046982.6,N
1652665595.4,286046979.1,N
1652665615.2,286046978.7,N
1652665635.1,286046975.1,N
1652665636.0,286046975.1,N
1652665655.8,286046975.4,N
1652665675.6,286046973.2,N
1652665695.5,286046969.4,N
1652665715.3,286046968.0,N
1652665735.1,286046970.6,N
1652665755.9,286046969.6,N
1652665775.7,286046973.6,N
1652665795.5,286046976.3,N
1652665815.4,286046976.4,N
1652665835.2,286046974.6,N
1652665855.0,286046981.5,N
1652665855.9,286046981.5,N
1652665875.8,286046984.8,N
1652665895.6,286046982.5,N
1652665915.4,286046986.0,N
1652665935.3,286046988.1,N
1652665955.1,286046992.6,N
1652665956.0,286046992.6,N
1652665975.8,286046994.6,N
1652665995.7,286046993.7,N
1652666015.5,286046995.6,N
1652666035.3,286046995.5,N
1652666055.2,286046995.1,N
1652666075.9,286046994.0,N
1652666095.7,286046992.5,N
1652666115.6,286046992.7,N
1652666135.4,286046993.2,N
1652666155.2,286046989.4,N
1652666175.1,286046989.1,N
1652666176.0,286046989.1,N
1652666195.8,286046993.2,N
1652666215.6,286046995.7,N
1652666235.5,286046999.9,N
1652666255.3,286046999.7,N
1652666275.1,286047002.0,N
1652666295.9,286047003.7,N
1652666315.7,286047005.2,N
1652666335.5,286047000.4,N
1652666355.4,286047000.1,N
1652666375.2,286047003.0,N
1652666395.0,286047006.0,N
1652666395.9,286047006.0,N
